www.pogodaiklimat.ru

Погода и климат >> Архив погоды >> Индия >> Guwahati


ПОГОДА в Guwahati

  • Прогноз погоды в Guwahati
  • Монитор погоды в Guwahati
  • Климат города

АРХИВ ПОГОДЫ в Guwahati

Время (UTC), дата Ветер
(напр.,м/с)
 
Видим.   Явления Облачность Т
(С)
Тd
(С)
f
(%)
Тe
(С)
Тes
(С)
Комфортность P
(гПа)
Po
(гПа)
Тmin
(С)
Tmax
(С)
R
(мм)
R24
(мм)
S
(см)
06 14.05 З 3 4000 м мгла 9/4 540 м
[St Ac trans]
+29.4 +23.9 72 +40 +46 очень
душно
1011.2 1011.0
09 14.05 ЮЗ 3 4000 м мгла 6/4 540 м
[Cb calv Ac trans]
+31.4 +24.6 67 +44 +49 опасность
перегрева
1008.2 1008.0
12 14.05 З 2 4000 м мгла 3/1 750 м
[Cu hum Ac trans]
+30.8 +24.8 70 +44 +44 опасность
перегрева
1006.4 1006.0 +32.4
15 14.05 штиль 0 2000 м дымка 9/5 540 м
[Sc Ac trans]
+27.6 +24.1 81 +38 +38 очень
душно
1008.3 1008.0
18 14.05 штиль 0 2000 м дымка 9/5 480 м
[Sc Ac trans]
+27.0 +24.1 84 +37 +37 очень
душно
1009.5 1010.0
00 15.05 штиль 0 4000 м дымка 4/1 540 м
[Sc Ac trans]
+23.0 +22.1 95 +31 +32 очень
душно
1007.3 1007.0
03 15.05 штиль 0 4000 м мгла 5/3 600 м
[Sc Ac trans]
+29.6 +23.5 70 +40 +50 очень
душно
1009.0 1009.0 +22.4
06 15.05 0 н/о +33.2 +23.5 57 +11 +11 1006.9 1007.0
09 15.05 СЗ 2 4000 м гроза без осадков {дождь} 6/4 540 м
[Cb cap Ac trans]
+32.0 +22.4 57 +41 +47 опасность
перегрева
1005.0 1005.0 0.0
12 15.05 Ю 3 4000 м гроза, ливневой дождь 10/6 480 м
[Cb cap As op]
+24.2 +20.5 80 +30 +30 очень
душно
1007.4 1007.0 +32.8 0.6
15 15.05 штиль 0 2000 м дымка {гроза, дождь} 10/5 480 м
[Sc As op]
+23.6 +21.2 86 +30 +30 очень
душно
1007.4 1007.0 0.8
18 15.05 штиль 0 2000 м дымка {метель} 10/5 540 м
[Sc As op]
+23.0 +20.9 88 +30 +30 очень
душно
1008.8 1009.0 0.8
21 15.05 штиль 0 2000 м дымка 10/5 540 м
[Sc As op]
+22.4 +20.6 90 +29 +29 очень
душно
1007.8 1008.0 0.8
00 16.05 штиль 0 2000 м дымка 8/4 300 м
[Frnb Ac trans]
+21.8 +20.9 95 +28 +28 душно 1006.5 1007.0 0.8
03 16.05 штиль 0 2000 м дымка 9/5 300 м
[St Ac trans Ci fib]
+25.0 +22.6 87 +33 +38 очень
душно
1008.9 1009.0 +21.1 0.8
06 16.05 Ю 2 4000 м дымка 9/4 600 м
[Sc Ac trans]
+27.6 +22.9 76 +37 +43 очень
душно
1008.7 1009.0
09 16.05 штиль 0 4000 м мгла 9/4 540 м
[Sc Ac trans]
+31.4 +24.3 66 +44 +48 опасность
перегрева
1004.7 1005.0
12 16.05 штиль 0 4000 м дымка 9/5 540 м
[Sc Ac trans]
+28.0 +23.3 76 +38 +38 очень
душно
1004.4 1004.0 +31.6
15 16.05 штиль 0 2000 м дымка 9/5 540 м
[Sc Ac trans]
+26.6 +24.3 87 +37 +37 очень
душно
1006.2 1006.0
18 16.05 штиль 0 2000 м дымка 9/5 600 м
[Sc Ac trans]
+26.0 +24.0 89 +36 +36 очень
душно
1007.0 1007.0
21 16.05 штиль 0 2000 м дымка 9/5 600 м
[Sc Ac trans]
+25.0 +23.4 91 +34 +34 очень
душно
1006.3 1006.0
00 17.05 штиль 0 2000 м дымка {дождь} 6/3 600 м
[Cb calv Ac trans]
+23.0 +22.7 98 +32 +32 очень
душно
1007.2 1007.0 3
03 17.05 штиль 0 4000 м дымка 9/4 600 м
[Sc Ac trans]
+25.2 +24.0 93 +35 +40 очень
душно
1009.0 1009.0 +22.4 3
06 17.05 штиль 0 4000 м дымка 8/4 600 м
[Sc Ac trans]
+29.0 +25.0 79 +42 +52 опасность
перегрева
1007.9 1008.0
09 17.05 штиль 0 4000 м мгла 8/4 600 м
[Sc Ac trans]
+32.2 +21.2 52 +40 +46 очень
душно
1004.6 1005.0
12 17.05 штиль 0 4000 м мгла 5/3 600 м
[Sc Ac trans]
+29.6 +23.8 71 +41 +41 опасность
перегрева
1004.2 1004.0 +32.8
15 17.05 штиль 0 2000 м дымка 5/3 540 м
[Cb calv Ac trans]
+26.2 +23.0 83 +35 +35 очень
душно
1006.0 1006.0
18 17.05 штиль 0 2000 м дымка 6/4 600 м
[Cb calv Ac trans]
+25.2 +23.1 88 +34 +34 очень
душно
1007.0 1007.0
21 17.05 штиль 0 2000 м дымка 6/4 540 м
[Cb calv Ac trans]
+24.0 +22.2 90 +31 +31 очень
душно
1006.5 1007.0
00 18.05 штиль 0 2000 м слабый дождь 10/6 300 м
[Cb calv As op]
+23.2 +22.9 98 +32 +32 очень
душно
1006.5 1007.0 8
03 18.05 штиль 0 2000 м дымка {дождь} 9/4 540 м
[Sc Ac trans]
+25.8 +24.4 92 +36 +41 очень
душно
1007.4 1007.0 +22.4 9
06 18.05 С 3 4000 м мгла {дождь} 5/1 600 м
[Sc diur, vesp Ac trans]
+31.0 +22.5 61 +41 +54 опасность
перегрева
1005.4 1005.0
09 18.05 В 3 4000 м мгла 9/4 540 м
[Cb calv Ac trans]
+30.2 +24.2 70 +42 +45 опасность
перегрева
1002.6 1003.0
12 18.05 ЮЗ 3 4000 м слабый дождь 9/4 540 м
[Cb calv Ac trans]
+28.2 +24.8 82 +40 +40 очень
душно
1002.5 1003.0 +33.8 0.0
15 18.05 штиль 0 2000 м дымка {дождь} 8/4 540 м
[Cb calv Ac trans]
+26.4 +23.8 86 +36 +36 очень
душно
1004.4 1004.0 0.0
18 18.05 штиль 0 2000 м дымка 5/3 540 м
[Sc Ac trans]
+26.0 +24.0 89 +36 +36 очень
душно
1004.8 1005.0 0.0
21 18.05 штиль 0 2000 м дымка 5/3 540 м
[Sc Ac trans]
+25.0 +23.2 90 +33 +33 очень
душно
1004.6 1005.0 0.0
00 19.05 штиль 0 2000 м дымка 8/4 540 м
[Sc Ac trans]
+24.6 +23.7 95 +33 +34 очень
душно
1005.8 1006.0 0.0
03 19.05 Ю 2 4000 м дымка 9/4 540 м
[Cb calv Ac trans]
+28.4 +24.4 79 +40 +44 очень
душно
1007.6 1008.0 +23.7 0.0
06 19.05 штиль 0 4000 м мгла 9/4 540 м
[Cb calv Ac trans]
+30.2 +24.2 70 +42 +51 опасность
перегрева
1006.3 1006.0
09 19.05 СЗ 2 4000 м мгла 5/3 540 м
[Cb calv Ac trans]
+33.2 +27.1 70 +51 +58 опасность
перегрева
1003.3 1003.0
12 19.05 СЗ 2 4000 м мгла 5/3 600 м
[Sc diur, vesp Ac trans]
+32.4 +23.8 61 +44 +44 опасность
перегрева
1002.8 1003.0 +33.8
15 19.05 штиль 0 2000 м дымка 9/5 480 м
[Cb calv Ac trans]
+29.4 +24.5 75 +42 +42 опасность
перегрева
1004.9 1005.0
18 19.05 штиль 0 2000 м дымка 10/5 480 м
[Cb calv As op]
+28.8 +24.5 78 +41 +41 опасность
перегрева
1005.9 1006.0
00 20.05 штиль 0 2000 м дымка {дождь} 9/4 540 м
[Cb calv Ac trans]
+25.2 +23.4 90 +34 +34 очень
душно
1006.0 1006.0 0.0
03 20.05 ЮЗ 1 2000 м слабый дождь 10/6 300 м
[Cb calv As op]
+25.6 +24.7 95 +36 +37 очень
душно
1008.1 1008.0 +24.4 2
06 20.05 СВ 2 4000 м мгла {дождь} 8/5 540 м
[Cb calv Ac trans]
+30.8 +24.8 70 +44 +51 опасность
перегрева
1006.7 1007.0 0.2
09 20.05 штиль 0 4000 м мгла 6/4 600 м
[Sc diur, vesp Ac trans]
+34.0 +24.7 58 +47 +55 опасность
перегрева
1003.8 1004.0 0.2
12 20.05 штиль 0 4000 м мгла 8/4 600 м
[Cb calv Ac trans]
+30.0 +23.7 69 +41 +41 опасность
перегрева
1003.4 1003.0 +34.4 0.2
15 20.05 штиль 0 2000 м дымка 5/3 600 м
[Cb calv Ac trans]
+26.8 +24.2 86 +37 +37 очень
душно
1005.4 1005.0 0.2
18 20.05 штиль 0 2000 м дымка 5/3 600 м
[Sc Ac trans]
+24.8 +23.3 91 +33 +33 очень
душно
1006.2 1006.0 0.2
21 20.05 штиль 0 2000 м дымка 6/3 540 м
[Sc Ac trans]
+23.6 +22.4 93 +31 +31 очень
душно
1005.7 1006.0 0.2
00 21.05 штиль 0 2000 м дымка 5/3 600 м
[Cb calv Ac trans]
+25.0 +23.8 93 +34 +35 очень
душно
1006.4 1006.0 0.2

 

Местоположение метеостанции Guwahati (Assam, Индия): широта 26.10 долгота 91.58 высота над уровнем моря 54 м.

В архиве по умолчанию представлена погода в Guwahati за последнюю неделю. Архивные данные за месяц целиком и за предыдущие месяцы, начиная с января 2011 года, Вы можете получить, выбрав интересующий диапазон дат из раскрывающегося списка и нажав кнопку "Ввод!".


*Определитесь, кто Вы:
робот инопланетянин человек

Внимание! Время в таблицах - всемирное. Для получения местного времени необходимо прибавить поправку, которая в Guwahati равна 5.5 ч.

Смотрите также архив погоды в соседних городах и на ближайших метеорологических станциях:

Погода в Rangia (Assam, Индия) (37 км)
Погода в Shillong Airport (Meghalaya, Индия) (59 км)
Погода в Shillong (Meghalaya, Индия) (66 км)
Погода в Tangla (Assam, Индия) (70 км)
Погода в Chaparmukh (Assam, Индия) (95 км)
Погода в Goalpara (Assam, Индия) (95 км)
Погода в Cherrapunji (Meghalaya, Индия) (96 км)
Погода в Mazbat (Assam, Индия) (105 км)
Погода в Tezpur (Assam, Индия) (133 км)
Погода в Sylhet (Бангладеш) (137 км)

Пояснения к столбцам:

Ветер - указаны скорость ветра в м/с - средняя за 10 мин, порывы в срок и между сроками (в фигурных скобках) и направление, откуда дует ветер: С - северный, СВ - северо-восточный, В - восточный, ЮВ - юго-восточный, Ю - южный, ЮЗ - юго-западный, З - западный, СЗ - северо-западный.
Видимость - горизонтальная дальность видимости в метрах или километрах. При видимости от 1 до 10 км при отсутствии осадков обычно наблюдается дымка, при ухудшении видимости до 1 км и менее - туман. В сухую погоду видимость может ухудшаться дымом, пылью или мглою.
Явления - указаны атмосферные явления, наблюдавшиеся в срок или в последний час перед сроком; фигурными скобками обозначены явления, наблюдавшиеся между сроками (за 1-3 часа до срока); квадратными скобками обозначены град или гололедные отложения с указанием их диаметра в мм.
Облачность - указаны через наклонную черту общая и нижняя облачность в баллах и высота нижней границы облаков в метрах; квадратными скобками обозначены формы облаков: Ci - перистые, Cs - перисто-слоистые, Cc - перисто-кучевые, Ac - высококучевые, As - высокослоистые, Sc - слоисто-кучевые, Ns - слоисто-дождевые, Cu - кучевые, Cb - кучево-дождевые. Подробнее классификацию облаков см. в Атласе облаков (PDF).
T - Температура воздуха - температура, измеренная на высоте 2 м над землей.
Td - Температура точки росы - температура, при понижении до которой содержащийся в воздухе водяной пар достигнет насыщения.
f - Относительная влажность воздуха - влажноcть воздуха, измеренная на высоте 2 м над землей.
Te - Эффективная температура - температура, которую ощущает одетый по сезону человек в тени. Характеристика душности погоды. При расчете учитывается влияние влажности воздуха и скорости ветра на теплоощущения человека.
Tes - Эффективная температура на солнце - температура, которую ощущает человек, с поправкой на солнечный нагрев. Характеристика знойности погоды. Зависит от высоты солнца над горизонтом, облачности и скорости ветра. Ночью, в пасмурную погоду, а также при ветре 12 м/с и более поправка равна нулю.
P - Атмосферное давление - приведенное к уровню моря атмосферное давление.
Po - Атмосферное давление - измеренное на уровне метеостанции атмосферное давление.
Tmin - Минимальная температура - минимум температуры воздуха на высоте 2 м над землей.
Tmax - Максимальная температура - максимум температуры воздуха на высоте 2 м над землей.
R - Количество осадков - Количество выпавших осадков за период времени, мм. При наведении курсора мыши на число - период времени, за который выпало указанное количество осадков.
R24 - Количество осадков - Количество выпавших осадков за 24 часа, мм.
S - Снежный покров - Высота снежного покрова, см. При наведении курсора мыши на число - состояние снежного покрова и степень покрытия местности в баллах.